Previsão horária em Abak

Hoje, 19 Janeiro, Terça-feira

Tempo Temperatura Precipitação Vento Pressão Humidade
00:00 +28°C° 0 mm 2 m/s 753 mmHg 82%
01:00 +28°C° 0 mm 2 m/s 753 mmHg 84%
02:00 +27°C° 0 mm 1 m/s 752 mmHg 86%
03:00 +27°C° 0 mm 1 m/s 752 mmHg 88%
04:00 +27°C° 0 mm 1 m/s 752 mmHg 89%
05:00 +27°C° 0.2 mm 1 m/s 752 mmHg 90%
06:00 +26°C° 0.2 mm 1 m/s 753 mmHg 90%
07:00 +24°C° 0.2 mm 0 m/s 753 mmHg 91%
08:00 +28°C° 0.1 mm 1 m/s 753 mmHg 81%
09:00 +30°C° 0.1 mm 1 m/s 754 mmHg 70%
10:00 +32°C° 0.1 mm 2 m/s 754 mmHg 59%
11:00 +34°C° 0 mm 1 m/s 754 mmHg 51%
12:00 +36°C° 0 mm 1 m/s 753 mmHg 42%
13:00 +37°C° 0 mm 1 m/s 752 mmHg 34%
14:00 +39°C° 0 mm 1 m/s 752 mmHg 31%
15:00 +39°C° 0 mm 2 m/s 751 mmHg 29%
16:00 +39°C° 0 mm 2 m/s 750 mmHg 26%
17:00 +37°C° 0 mm 2 m/s 750 mmHg 38%
18:00 +34°C° 0 mm 3 m/s 751 mmHg 50%
19:00 +30°C° 0 mm 3 m/s 751 mmHg 63%
20:00 +29°C° 0 mm 3 m/s 752 mmHg 67%
21:00 +29°C° 0 mm 3 m/s 752 mmHg 72%
22:00 +28°C° 0 mm 2 m/s 753 mmHg 77%
23:00 +28°C° 0 mm 2 m/s 753 mmHg 79%

Amanhã, 20 Janeiro, Quarta-feira

Tempo Temperatura Precipitação Vento Pressão Humidade
00:00 +28°C° 0 mm 1 m/s 753 mmHg 81%
01:00 +27°C° 0 mm 1 m/s 752 mmHg 83%
02:00 +27°C° 0 mm 1 m/s 752 mmHg 84%
03:00 +25°C° 0 mm 0 m/s 752 mmHg 86%
04:00 +25°C° 0 mm 0 m/s 752 mmHg 87%
05:00 +25°C° 0 mm 0 m/s 753 mmHg 87%
06:00 +25°C° 0 mm 0 m/s 753 mmHg 86%
07:00 +25°C° 0 mm 0 m/s 754 mmHg 86%
08:00 +27°C° 0 mm 0 m/s 754 mmHg 75%
09:00 +29°C° 0 mm 0 m/s 754 mmHg 64%
10:00 +32°C° 0 mm 0 m/s 754 mmHg 53%
11:00 +34°C° 0 mm 0 m/s 754 mmHg 46%
12:00 +35°C° 0 mm 0 m/s 754 mmHg 39%
13:00 +37°C° 0 mm 0 m/s 753 mmHg 32%
14:00 +40°C° 0 mm 1 m/s 752 mmHg 32%
15:00 +39°C° 0 mm 1 m/s 752 mmHg 33%
16:00 +39°C° 0 mm 2 m/s 751 mmHg 33%
17:00 +36°C° 0 mm 2 m/s 751 mmHg 44%
18:00 +34°C° 0 mm 3 m/s 751 mmHg 55%
19:00 +30°C° 0 mm 4 m/s 751 mmHg 66%
20:00 +30°C° 0 mm 3 m/s 752 mmHg 69%
21:00 +29°C° 0 mm 2 m/s 752 mmHg 72%
22:00 +29°C° 0 mm 2 m/s 753 mmHg 75%
23:00 +28°C° 0 mm 1 m/s 753 mmHg 78%

Depois de amanhã, 21 Janeiro, Quinta-feira

Tempo Temperatura Precipitação Vento Pressão Humidade
00:00 +28°C° 0 mm 1 m/s 752 mmHg 80%
01:00 +28°C° 0 mm 1 m/s 752 mmHg 82%
02:00 +27°C° 0 mm 1 m/s 752 mmHg 84%
03:00 +27°C° 0 mm 1 m/s 752 mmHg 86%
04:00 +25°C° 0 mm 0 m/s 752 mmHg 88%
05:00 +25°C° 0 mm 0 m/s 752 mmHg 88%
06:00 +25°C° 0 mm 0 m/s 753 mmHg 88%
07:00 +25°C° 0 mm 0 m/s 753 mmHg 88%
08:00 +27°C° 0.1 mm 0 m/s 754 mmHg 77%
09:00 +31°C° 0.1 mm 1 m/s 754 mmHg 67%
10:00 +33°C° 0.1 mm 1 m/s 754 mmHg 56%
11:00 +33°C° 0 mm 1 m/s 754 mmHg 53%
12:00 +34°C° 0 mm 1 m/s 753 mmHg 50%
13:00 +34°C° 0 mm 1 m/s 753 mmHg 46%
14:00 +35°C° 0 mm 1 m/s 752 mmHg 44%
15:00 +35°C° 0 mm 1 m/s 752 mmHg 42%
16:00 +36°C° 0 mm 1 m/s 751 mmHg 39%
17:00 +35°C° 0 mm 2 m/s 751 mmHg 49%
18:00 +33°C° 0 mm 3 m/s 751 mmHg 58%
19:00 +30°C° 0 mm 4 m/s 752 mmHg 68%
20:00 +29°C° 0 mm 3 m/s 752 mmHg 71%
21:00 +29°C° 0 mm 2 m/s 753 mmHg 75%
22:00 +28°C° 0 mm 2 m/s 753 mmHg 78%
23:00 +28°C° 0 mm 2 m/s 753 mmHg 80%

22 Janeiro, Sexta-feira

Tempo Temperatura Precipitação Vento Pressão Humidade
00:00 +28°C° 0 mm 1 m/s 753 mmHg 82%
01:00 +27°C° 0 mm 1 m/s 753 mmHg 83%
02:00 +27°C° 0 mm 1 m/s 753 mmHg 85%
03:00 +27°C° 0 mm 1 m/s 752 mmHg 87%
04:00 +24°C° 0 mm 0 m/s 752 mmHg 89%
05:00 +24°C° 0 mm 0 m/s 753 mmHg 90%
06:00 +24°C° 0 mm 0 m/s 753 mmHg 91%
07:00 +24°C° 0 mm 0 m/s 753 mmHg 91%
08:00 +26°C° 0.1 mm 0 m/s 754 mmHg 81%
09:00 +28°C° 0.1 mm 0 m/s 754 mmHg 70%
10:00 +31°C° 0.1 mm 0 m/s 755 mmHg 59%
11:00 +32°C° 0 mm 0 m/s 754 mmHg 53%
12:00 +33°C° 0 mm 0 m/s 753 mmHg 47%
13:00 +37°C° 0 mm 1 m/s 753 mmHg 40%
14:00 +36°C° 0 mm 1 m/s 752 mmHg 39%
15:00 +36°C° 0 mm 1 m/s 751 mmHg 38%
16:00 +37°C° 0 mm 2 m/s 751 mmHg 38%
17:00 +35°C° 0 mm 2 m/s 751 mmHg 46%
18:00 +33°C° 0 mm 3 m/s 751 mmHg 54%
19:00 +32°C° 0 mm 4 m/s 751 mmHg 62%
20:00 +30°C° 0 mm 3 m/s 752 mmHg 66%
21:00 +29°C° 0 mm 3 m/s 753 mmHg 70%
22:00 +29°C° 0 mm 3 m/s 753 mmHg 75%
23:00 +28°C° 0 mm 2 m/s 753 mmHg 77%

23 Janeiro, Sábado

Tempo Temperatura Precipitação Vento Pressão Humidade
00:00 +28°C° 0 mm 2 m/s 753 mmHg 79%
01:00 +28°C° 0 mm 1 m/s 753 mmHg 81%
02:00 +27°C° 0 mm 1 m/s 753 mmHg 83%
03:00 +27°C° 0 mm 1 m/s 752 mmHg 85%
04:00 +24°C° 0 mm 0 m/s 752 mmHg 87%
05:00 +24°C° 0 mm 0 m/s 753 mmHg 88%
06:00 +24°C° 0 mm 0 m/s 753 mmHg 89%
07:00 +24°C° 0 mm 0 m/s 753 mmHg 90%
08:00 +28°C° 0 mm 1 m/s 754 mmHg 79%
09:00 +30°C° 0 mm 1 m/s 754 mmHg 69%
10:00 +33°C° 0 mm 1 m/s 754 mmHg 58%
11:00 +33°C° 0 mm 1 m/s 754 mmHg 54%
12:00 +34°C° 0 mm 1 m/s 753 mmHg 50%
13:00 +35°C° 0 mm 1 m/s 752 mmHg 46%
14:00 +35°C° 0 mm 1 m/s 751 mmHg 45%
15:00 +35°C° 0 mm 1 m/s 751 mmHg 44%
16:00 +36°C° 0 mm 2 m/s 750 mmHg 42%
17:00 +34°C° 0 mm 2 m/s 750 mmHg 51%
18:00 +31°C° 0 mm 3 m/s 750 mmHg 59%
19:00 +30°C° 0 mm 4 m/s 751 mmHg 68%
20:00 +29°C° 0 mm 3 m/s 751 mmHg 71%
21:00 +29°C° 0 mm 3 m/s 752 mmHg 73%
22:00 +28°C° 0 mm 2 m/s 753 mmHg 76%
23:00 +28°C° 0 mm 2 m/s 753 mmHg 78%

24 Janeiro, Domingo

Tempo Temperatura Precipitação Vento Pressão Humidade
00:00 +28°C° 0 mm 1 m/s 753 mmHg 81%
01:00 +27°C° 0 mm 1 m/s 753 mmHg 83%
02:00 +27°C° 0 mm 1 m/s 753 mmHg 85%
03:00 +27°C° 0 mm 1 m/s 752 mmHg 87%
04:00 +26°C° 0 mm 1 m/s 752 mmHg 89%
05:00 +24°C° 0 mm 0 m/s 752 mmHg 89%
06:00 +24°C° 0 mm 0 m/s 753 mmHg 90%
07:00 +24°C° 0 mm 0 m/s 753 mmHg 91%
08:00 +26°C° 0.1 mm 0 m/s 753 mmHg 80%
09:00 +28°C° 0.1 mm 0 m/s 754 mmHg 69%
10:00 +31°C° 0.1 mm 0 m/s 754 mmHg 58%
11:00 +32°C° 0 mm 0 m/s 754 mmHg 52%
12:00 +33°C° 0 mm 0 m/s 753 mmHg 46%
13:00 +35°C° 0 mm 0 m/s 753 mmHg 41%
14:00 +36°C° 0 mm 1 m/s 752 mmHg 41%
15:00 +36°C° 0 mm 1 m/s 751 mmHg 41%
16:00 +36°C° 0 mm 2 m/s 750 mmHg 42%
17:00 +35°C° 0 mm 3 m/s 750 mmHg 49%
18:00 +33°C° 0 mm 3 m/s 751 mmHg 56%
19:00 +30°C° 0 mm 4 m/s 751 mmHg 63%
20:00 +30°C° 0 mm 3 m/s 751 mmHg 67%
21:00 +29°C° 0 mm 3 m/s 752 mmHg 70%
22:00 +28°C° 0 mm 2 m/s 753 mmHg 74%
23:00 +28°C° 0 mm 2 m/s 753 mmHg 77%
Mostrar mais